Regional Weather Roundup
Issued by NWS

Home | Current Version | Previous Version | Graphics & Text | Print | Product List | Glossary On
Versions: 1 2 3 4 5 6 7 8 9 10 11 12 13 14 15 16 17 18 19 20 21 22 23 24 25 26 27
000
ASUS45 KCYS 252010
RWRWY

WYOMING REGIONAL WEATHER ROUNDUP
NATIONAL WEATHER SERVICE CHEYENNE WY
200 PM MDT WED MAY 25 2016

NOTE:  "FAIR" INDICATES FEW OR NO CLOUDS BELOW 12,000 FEET
WITH NO SIGNIFICANT WEATHER AND/OR OBSTRUCTIONS TO VISIBILITY.

WYZ001-252100-
YELLOWSTONE NATIONAL PARK

CITY           SKY/WX    TMP DP  RH WIND       PRES   REMARKS
LK YELLOWSTONE   N/A     44  36  73 MISG      30.06S
W YELLOWSTONE  NOT AVBL

$$
WYZ002>013-054>058-071-098>099-252100-
NORTHERN WYOMING

CITY           SKY/WX    TMP DP  RH WIND       PRES   REMARKS
JACKSON        PTSUNNY   48  39  71 SW6       30.03S
CODY           FAIR      55  41  58 N5        29.93S
GREYBULL       NOT AVBL
WORLAND        CLOUDY    54  47  77 E9        29.90F
SHERIDAN       PTSUNNY   56  49  77 W10       29.94S
BUFFALO          N/A     55  40  56 CALM      29.95S
GILLETTE       FAIR      60  42  51 VRB5      29.92F
HULETT         FAIR      59  43  55 SW5       29.93F
NEWCASTLE      FAIR      63  37  39 NW14G23   29.91F

$$
WYZ014>020-022>026-101>103-252100-
CENTRAL WYOMING

CITY           SKY/WX    TMP DP  RH WIND       PRES   REMARKS
BIG PINEY      PTSUNNY   50  37  61 NE10G16   30.06F
PINEDALE       FAIR      45  39  81 NE7       30.08F
DUBOIS         MOCLDY    54  28  37 W20G26    30.00R
LANDER         FAIR      61  34  36 S5        29.91F
RIVERTON       CLOUDY    62  34  35 S6        29.93F
CASPER         FAIR      59  43  55 SW12      29.94F
DOUGLAS          N/A    N/A N/A N/A MISG      29.94R

$$
WYZ021-027>030-104>119-252100-
SOUTHERN WYOMING

CITY           SKY/WX    TMP DP  RH WIND       PRES   REMARKS
EVANSTON       PTSUNNY   51  34  52 S12       30.08S
KEMMERER         N/A     52  34  50 W10G17    30.08F
FORT BRIDGER   MOCLDY    52  37  58 W17       30.12R
ROCK SPRINGS   LGT RAIN  51  38  60 SW24G32   30.08R
DIXON          FAIR      63  25  24 SW21G26   30.07F
RAWLINS        FAIR      59  26  28 SW20G36   30.04F
SARATOGA       FAIR      59  28  31 W17G28    30.07F
LARAMIE        FAIR      60  24  25 W20G35    30.04S
CHEYENNE       PTSUNNY   61  34  36 W9        29.99F
TORRINGTON     FAIR      70  35  27 W15G22    29.91F
PINE BLUFFS    MOCLDY    68  34  28 S8G17     29.98S

$$




USA.gov is the U.S. government's official web portal to all federal, state and local government web resources and services.